Date String (YYYY-MM-DD hh:mm:ss) UTC,Instrument flags,Ambient pressure (hPa),Sample flow (lpm),Bypass flow (lpm),Sample temperature (°C),Ambient temperature (°C),ASC tube jacket temperature (°C),LED temperature (°C),Box temperature (°C),Sample RH (%),Span deviation,Mass concentration (μg/m³),Mass concentration (μg/m³),Mass concentration (μg/m³)
DateTimeUTC,F1_M11,P_M11,Q1_M11,Q2_M11,T1_M11,T2_M11,T3_M11,T4_M11,T5_M11,U1_M11,ZSPAN_M11,X0_M11,X2_M11,X1_M11
2021-12-21 05:00:00,,0824.8,5.00,0.00,24.2,23.3,00.0,33.2,25.9,10.1,0000.0,0026.30,0008.33,0005.84
2021-12-21 05:01:00,,0824.6,5.01,0.00,24.2,23.3,00.0,33.2,25.9,10.0,0000.0,0026.14,0008.28,0005.82
2021-12-21 05:02:00,,0824.4,5.01,0.00,24.2,23.3,00.0,33.2,25.9,10.1,0000.0,0027.97,0008.29,0005.81
2021-12-21 05:03:00,,0824.7,4.98,0.00,24.2,23.3,00.0,33.2,25.9,10.1,0000.0,0030.34,0008.35,0005.80
2021-12-21 05:04:00,,0824.7,5.02,0.00,24.2,23.3,00.0,33.2,25.9,10.1,0000.0,0030.57,0008.33,0005.79
2021-12-21 05:05:00,,0824.5,4.99,0.00,24.2,23.3,00.0,33.2,25.9,10.1,0000.0,0030.98,0008.30,0005.78
2021-12-21 05:06:00,,0824.5,5.01,0.00,24.1,23.2,00.0,33.2,25.8,10.1,0000.0,0031.63,0008.27,0005.78
2021-12-21 05:07:00,,0824.4,4.99,0.00,24.1,23.2,00.0,33.2,25.7,10.2,0000.0,0030.72,0008.20,0005.77
2021-12-21 05:08:00,,0824.4,5.01,0.00,24.1,23.1,00.0,33.1,25.7,10.2,0000.0,0028.78,0008.16,0005.74
2021-12-21 05:09:00,,0824.6,4.99,0.00,24.1,23.1,00.0,33.1,25.7,10.1,0000.0,0028.04,0008.16,0005.73
2021-12-21 05:10:00,,0824.6,5.00,0.00,24.0,23.1,00.0,33.1,25.6,10.0,0000.0,0027.47,0008.13,0005.71
2021-12-21 05:11:00,,0824.6,5.00,0.00,24.0,23.0,00.0,33.1,25.5,10.1,0002.2,0028.65,0008.15,0005.71
2021-12-21 05:12:00,,0824.6,4.99,0.00,23.9,23.0,00.0,33.1,25.5,10.2,0000.1,0028.21,0008.14,0005.71
2021-12-21 05:13:00,,0824.5,5.01,0.00,23.9,23.0,00.0,33.1,25.5,10.2,0001.5,0026.84,0008.08,0005.72
2021-12-21 05:14:00,,0824.4,5.00,0.00,23.8,22.9,00.0,33.0,25.4,10.1,0000.0,0024.95,0007.98,0005.71
2021-12-21 05:15:00,,0824.3,5.00,0.00,23.8,22.9,00.0,33.0,25.4,10.2,0000.5,0025.30,0008.01,0005.71
2021-12-21 05:16:00,,0824.3,5.01,0.00,23.8,22.8,00.0,33.0,25.4,10.2,0003.7,0025.78,0007.99,0005.70
2021-12-21 05:17:00,,0824.4,4.98,0.00,23.8,22.7,00.0,33.0,25.3,10.2,0002.3,0025.21,0007.96,0005.70
2021-12-21 05:18:00,,0824.4,5.01,0.00,23.7,22.7,00.0,32.9,25.3,10.2,0004.1,0025.58,0007.98,0005.70
2021-12-21 05:19:00,,0824.3,5.01,0.00,23.7,22.7,00.0,32.9,25.3,10.2,0004.1,0025.77,0008.06,0005.71
2021-12-21 05:20:00,,0824.2,4.98,0.00,23.6,22.5,00.0,32.9,25.2,10.3,0003.0,0026.14,0008.09,0005.72
2021-12-21 05:21:00,,0824.2,5.02,0.00,23.6,22.4,00.0,32.8,25.1,10.3,0000.0,0026.26,0008.12,0005.72
2021-12-21 05:22:00,,0824.2,4.99,0.00,23.6,22.4,00.0,32.8,25.1,10.3,0000.0,0025.71,0008.07,0005.72
2021-12-21 05:23:00,,0824.4,5.02,0.00,23.5,22.4,00.0,32.8,25.1,10.3,0000.3,0026.04,0008.07,0005.72
2021-12-21 05:24:00,,0824.3,4.99,0.00,23.5,22.4,00.0,32.7,25.0,10.4,0002.4,0026.12,0008.03,0005.70
2021-12-21 05:25:00,,0824.3,5.00,0.00,23.5,22.4,00.0,32.7,25.0,10.6,0003.7,0025.83,0008.08,0005.70
2021-12-21 05:26:00,,0824.4,5.01,0.00,23.5,22.5,00.0,32.7,25.0,10.5,0003.7,0026.94,0008.06,0005.71
2021-12-21 05:27:00,,0824.1,4.99,0.00,23.4,22.5,00.0,32.7,25.0,10.5,0004.4,0026.95,0008.05,0005.71
2021-12-21 05:28:00,,0824.1,5.01,0.00,23.4,22.4,00.0,32.6,25.0,10.6,0004.3,0027.35,0008.07,0005.71
2021-12-21 05:29:00,,0824.1,4.99,0.00,23.4,22.4,00.0,32.6,25.0,10.6,0004.2,0026.28,0008.06,0005.71
2021-12-21 05:30:00,,0824.2,5.01,0.00,23.4,22.5,00.0,32.6,25.1,10.6,0003.1,0026.29,0008.00,0005.72
2021-12-21 05:31:00,,0824.3,4.99,0.00,23.4,22.5,00.0,32.6,25.1,10.6,0001.4,0026.16,0007.98,0005.72
2021-12-21 05:32:00,,0824.1,5.02,0.00,23.4,22.5,00.0,32.5,25.0,10.6,0000.0,0026.85,0007.99,0005.73
2021-12-21 05:33:00,,0824.1,5.01,0.00,23.4,22.5,00.0,32.5,25.0,10.6,0000.0,0027.79,0008.01,0005.73
2021-12-21 05:34:00,,0824.1,4.99,0.00,23.3,22.4,00.0,32.5,25.0,10.7,0000.0,0027.99,0008.01,0005.75
2021-12-21 05:35:00,,0824.0,5.00,0.00,23.3,22.4,00.0,32.5,25.0,10.6,0000.0,0028.07,0008.05,0005.76
2021-12-21 05:36:00,,0824.0,4.99,0.00,23.3,22.4,00.0,32.5,25.0,10.6,0000.0,0027.64,0008.02,0005.75
2021-12-21 05:37:00,,0823.9,5.01,0.00,23.3,22.4,00.0,32.5,25.0,10.6,0000.0,0026.80,0007.98,0005.76
2021-12-21 05:38:00,,0824.0,5.00,0.00,23.4,22.5,00.0,32.4,25.0,10.6,0000.0,0028.14,0007.99,0005.78
2021-12-21 05:39:00,,0824.0,5.00,0.00,23.4,22.5,00.0,32.4,25.0,10.6,0000.0,0029.21,0007.98,0005.78
2021-12-21 05:40:00,,0824.0,5.00,0.00,23.3,22.5,00.0,32.4,25.0,10.5,0000.0,0030.45,0008.06,0005.80
2021-12-21 05:41:00,,0824.0,4.99,0.00,23.3,22.4,00.0,32.4,24.9,10.6,0000.0,0029.95,0008.03,0005.79
2021-12-21 05:42:00,,0823.8,5.02,0.00,23.3,22.4,00.0,32.4,24.9,10.6,0000.0,0030.40,0007.99,0005.80
2021-12-21 05:43:00,,0823.7,4.99,0.00,23.3,22.4,00.0,32.4,24.9,10.5,0000.0,0029.74,0007.96,0005.80
2021-12-21 05:44:00,,0823.7,5.00,0.00,23.2,22.3,00.0,32.4,24.9,10.5,0000.0,0029.31,0007.91,0005.80
2021-12-21 05:45:00,,0823.7,5.01,0.00,23.2,22.2,00.0,32.3,24.8,10.5,0000.0,0029.62,0007.91,0005.77
2021-12-21 05:46:00,,0823.8,4.99,0.00,23.2,22.2,00.0,32.3,24.8,10.6,0000.0,0030.68,0007.89,0005.77
2021-12-21 05:47:00,,0823.8,5.00,0.00,23.1,22.1,00.0,32.3,24.7,10.6,0000.0,0030.85,0007.86,0005.77
2021-12-21 05:48:00,,0824.0,5.01,0.00,23.1,22.0,00.0,32.3,24.6,10.7,0000.0,0030.49,0007.82,0005.75
2021-12-21 05:49:00,,0823.8,5.00,0.00,23.0,22.1,00.0,32.3,24.6,10.8,0000.0,0029.94,0007.80,0005.73
2021-12-21 05:50:00,,0823.7,5.01,0.00,23.0,22.1,00.0,32.2,24.6,10.8,0000.0,0028.97,0007.78,0005.72
2021-12-21 05:51:00,,0823.8,4.99,0.00,23.0,22.1,00.0,32.2,24.6,10.8,0000.0,0027.79,0007.74,0005.72
2021-12-21 05:52:00,,0823.8,5.01,0.00,23.0,22.1,00.0,32.2,24.6,10.8,0000.0,0028.19,0007.79,0005.71
2021-12-21 05:53:00,,0823.8,4.99,0.00,22.9,22.0,00.0,32.2,24.5,10.8,0000.0,0027.56,0007.83,0005.70
2021-12-21 05:54:00,,0824.0,5.00,0.00,22.9,21.9,00.0,32.1,24.4,10.9,0000.0,0028.20,0007.91,0005.70
2021-12-21 05:55:00,,0823.8,5.00,0.00,22.8,21.9,00.0,32.1,24.3,10.9,0000.0,0028.07,0007.98,0005.70
2021-12-21 05:56:00,,0823.8,4.99,0.00,22.8,21.8,00.0,32.1,24.3,10.9,0000.0,0028.68,0007.94,0005.73
2021-12-21 05:57:00,,0823.7,5.01,0.00,22.7,21.8,00.0,32.0,24.3,10.9,0000.0,0027.27,0007.99,0005.73
2021-12-21 05:58:00,,0823.7,5.00,0.00,22.7,21.8,00.0,32.0,24.3,10.9,0000.0,0027.19,0008.05,0005.74
2021-12-21 05:59:00,,0823.7,4.99,0.00,22.7,21.8,00.0,32.0,24.2,10.9,0000.0,0027.76,0008.17,0005.77
